Regional Weather Roundup
Issued by NWS Lake Charles, LA

Home | Current Version | Previous Version | Text Only | Print | Product List | Glossary On
Versions: 1 2 3 4 5 6 7 8 9 10 11 12 13 14 15 16 17 18 19 20 21 22 23 24 25 26 27
000
ASUS44 KLCH 250010
RWRLCH
REGIONAL WEATHER ROUNDUP
NATIONAL WEATHER SERVICE LAKE CHARLES LA
700 PM CDT SUN SEP 24 2017

Note: "fair" indicates few or no clouds below 12,000 feet with no
significant weather and/or obstructions to visibility.


ACROSS SOUTHEAST TEXAS

CITY           SKY/WX    TMP DP  RH WIND       PRES   REMARKS
BEAUMONT       CLEAR     80  72  76 SE7       29.86S
BEAUMONT CITY  FAIR      81  73  78 S3        29.87S
ORANGE         CLEAR     83  74  73 MISG      29.88R
JASPER         CLEAR     84  72  67 CALM      29.90R
$$

ACROSS CENTRAL LOUISIANA

CITY           SKY/WX    TMP DP  RH WIND       PRES   REMARKS
LEESVILLE      CLEAR     80  71  75 CALM      29.88R
FULLERTON      FAIR      79  70  74 CALM      29.86S
ALEXANDRIA INT CLEAR     80  67  64 E6        29.87S
ESLER FIELD    CLEAR     77  72  84 CALM      29.89R
DERIDDER       FAIR      82  68  61 CALM      29.90R
OAKDALE        CLEAR     78  74  87 CALM      29.88S
OPELOUSAS      FAIR      82  69  65 E3        29.88S
$$

ACROSS SOUTHWEST AND SOUTH CENTRAL LOUISIANA

CITY           SKY/WX    TMP DP  RH WIND       PRES   REMARKS
SULPHUR        CLEAR     83  71  67 S3        29.88R
LAKE CHARLES   CLEAR     84  72  67 S3        29.86S
CHENNAULT INT  NOT AVBL
CAMERON PHI      N/A     82  73  74 SE9       29.86R
DEQUINCY       FAIR      80  73  78 CALM      29.87S
JENNINGS       FAIR      83  69  63 NE7       29.87R
LAFAYETTE      CLEAR     81  70  69 E3        29.88R
NEW IBERIA     CLEAR     78  66  66 SE5       29.88S
ABBEVILLE        N/A     75  72  88 CALM      29.88S
PATTERSON      PTCLDY    77  70  79 E5        29.89S
SALT POINT       N/A     77  74  90 CALM      29.86S
$$

SELECTED SITES ACROSS THE REGION

CITY           SKY/WX    TMP DP  RH WIND       PRES   REMARKS
HOUSTON BUSH   MOCLDY    79  73  82 E12       29.87R
HOUSTON HOBBY  PTCLDY    85  69  58 E12       29.84R
GALVESTON      PTCLDY    85  75  72 E14       29.86R
COLLEGE STAT   CLEAR     87  69  54 E8        29.84R
CONROE         MOCLDY    81  71  71 E6        29.87R
HUNTSVILLE     CLOUDY    79  71  76 S5        29.87R
LUFKIN         CLEAR     82  70  66 E3        29.87R
SHREVEPORT     PTCLDY    84  68  58 E6        29.88R
MONROE         CLEAR     80  69  69 NE5       29.91R
NATCHEZ MS     CLEAR     81  69  67 E3        29.92R
BATON ROUGE    CLEAR     82  69  64 E9        29.89S
N.O. INTL ARPT PTCLDY    82  68  62 E13       29.90R
SLIDELL        CLEAR     80  70  71 E3        29.91R
$$

MARINE REPORTS

STATION/POSITION TIME  SKY/WX   TEMP    WIND        PRES    VSBY
                                AIR SEA DIR/SP/G
                 (UTC)          (F)     (DEG/KT/KT) (MB)    (MI)
BUOY 30 S HIGH I 2250            82 84  100/ 16/ 17 1010.5
WVE H/P(F/S)=  2/ 5

SEA RIM ST PARK  2300            83     120/  9/ 11 1011.6S
PORT ARTHUR      2348                   130/  5/  9   N/A
SABINE PASS N    2348                   120/  9/ 12   N/A
TEXAS POINT      NOT AVBL
CALCASIEU PASS   2348                   160/  8/ 11   N/A
LK CHARLES BEACH 2330            87 81              1010.8R
MARSH ISLAND     2300            82                   N/A
FRESH WATER LOCK 2348                    70/  5/  8   N/A
AMERADA PASS     2348                   100/  2/  4   N/A
$$




USA.gov is the U.S. government's official web portal to all federal, state and local government web resources and services.